Location: Tel Aviv
(32.0670°N, 34.7670°E)
Time: 22:22:26
(UTC+03:00)

Vanguard 1 Rocket - Pass Details

Date: 21 July 2025
Orbit: 654 x 4213 km, 34.3° (Epoch: 18 April)

Event Time Altitude Azimuth Distance (km) Brightness Sun altitude
Rises 00:39:18 0° 284° (WNW) 5,615 11.6 -37.4°
Reaches altitude 10° 00:43:47 10° 284° (WNW) 4,045 10.8 -37.4°
Enters shadow 00:49:12 33° 281° (WNW) 2,083 9.2 -37.5°
